Salina, KS

1:39 AM CDT on May 24, 2017 (GMT -0500)
Salina Municipal

Weather History for KSLN - August, 2015

Change the Weather History Date:

Wednesday, August 26, 2015

  Actual Average Record
Temperature  
Mean Temperature 76 °F 78 °F  
Max Temperature 91 °F 90 °F 110 °F (1921)
Min Temperature 61 °F 67 °F 43 °F (1910)
Degree Days  
Heating Degree Days 0 0  
Month to date heating degree days 0 0  
Since 1 June heating degree days 0 7  
Since 1 July heating degree days 0 0  
Cooling Degree Days 11 13  
Month to date cooling degree days 320 392  
Year to date cooling degree days 1400 1346  
Since 1 June cooling degree days 1310 1218  
Growing Degree Days 26 (Base 50)    
Moisture  
Dew Point 64 °F    
Average Humidity 68    
Maximum Humidity 84    
Minimum Humidity 52    
Precipitation  
Precipitation 0.00 in 0.12 in 1.34 in (2016)
Month to date precipitation 3.78 3.36  
Year to date precipitation 23.74 23.75  
Sea Level Pressure  
Sea Level Pressure 30.07 in    
Wind  
Wind Speed 9 mph (SE)    
Max Wind Speed 20 mph    
Max Gust Speed 23 mph    
Visibility 10 miles    
Events      
T = Trace of Precipitation, MM = Missing Value Source: NWS Daily Summary

Daily Weather History Graph

Daily Weather History Graph

Search for Another Location

Airport or City:

Trip Planner

Search our weather history database for the weather conditions in past years. The results will help you decide how hot, cold, wet, or windy it might be!

Date:

Astronomy

Aug. 26, 2015 Rise Set
Actual Time 6:54 AM CDT 8:10 PM CDT
Civil Twilight 6:26 AM CDT 8:37 PM CDT
Nautical Twilight 5:53 AM CDT 9:10 PM CDT
Astronomical Twilight 5:18 AM CDT 9:45 PM CDT
Moon 5:49 PM CDT (8/26) 3:20 AM CDT (8/26)
Length of Visible Light 14h 11m
Length of Day
13h 16m
Waxing Gibbous, 87% of the Moon is Illuminated
Aug 26
Waxing Gibbous
Aug 29
Full
Sep 5
Last Quarter
Sep 13
New
Sep 21
First Quarter

Hourly Weather History & Observations

Time (CDT) Temp. Heat Index Dew Point Humidity Pressure Visibility Wind Dir Wind Speed Gust Speed Precip Events Conditions
12:53 AM 64.0 °F - 57.0 °F 78% 30.11 in 10.0 mi SSE 4.6 mph - N/A   Clear
1:53 AM 62.1 °F - 57.0 °F 84% 30.11 in 10.0 mi SSE 5.8 mph - N/A   Clear
2:53 AM 64.0 °F - 55.0 °F 73% 30.11 in 10.0 mi Calm Calm - N/A   Clear
3:53 AM 62.1 °F - 55.0 °F 78% 30.10 in 10.0 mi Calm Calm - N/A   Clear
4:53 AM 62.1 °F - 55.9 °F 80% 30.11 in 10.0 mi SE 3.5 mph - N/A   Clear
5:53 AM 62.1 °F - 55.9 °F 80% 30.11 in 10.0 mi SSE 4.6 mph - N/A   Clear
6:53 AM 64.0 °F - 55.9 °F 75% 30.12 in 10.0 mi SE 4.6 mph - N/A   Clear
7:53 AM 64.9 °F - 55.9 °F 73% 30.12 in 10.0 mi ESE 4.6 mph - N/A   Clear
8:53 AM 70.0 °F - 60.1 °F 71% 30.12 in 10.0 mi SSE 5.8 mph - N/A   Clear
9:53 AM 75.9 °F - 59.0 °F 56% 30.12 in 10.0 mi SSE 6.9 mph - N/A   Clear
10:53 AM 80.1 °F 81.2 °F 62.1 °F 54% 30.12 in 10.0 mi SSE 5.8 mph - N/A   Clear
11:53 AM 84.0 °F 86.5 °F 66.9 °F 56% 30.11 in 10.0 mi SSE 8.1 mph - N/A   Clear
12:53 PM 88.0 °F 92.1 °F 69.1 °F 53% 30.09 in 10.0 mi SE 12.7 mph - N/A   Clear
1:53 PM 89.1 °F 95.0 °F 71.1 °F 55% 30.07 in 10.0 mi SE 15.0 mph - N/A   Clear
2:53 PM 90.0 °F 96.4 °F 71.1 °F 54% 30.04 in 10.0 mi SE 15.0 mph - N/A   Clear
3:53 PM 91.0 °F 98.2 °F 72.0 °F 53% 30.02 in 10.0 mi SE 17.3 mph - N/A   Clear
4:53 PM 91.0 °F 98.2 °F 72.0 °F 53% 30.01 in 10.0 mi SSE 15.0 mph - N/A   Clear
5:53 PM 90.0 °F 96.4 °F 71.1 °F 54% 30.01 in 10.0 mi SSE 15.0 mph - N/A   Clear
6:53 PM 88.0 °F 93.8 °F 71.1 °F 57% 30.00 in 10.0 mi SSE 11.5 mph - N/A   Clear
7:53 PM 84.9 °F 90.1 °F 71.1 °F 63% 29.99 in 10.0 mi SSE 11.5 mph - N/A   Clear
8:53 PM 81.0 °F 84.4 °F 70.0 °F 69% 29.99 in 10.0 mi SE 10.4 mph - N/A   Clear
9:53 PM 80.1 °F 82.9 °F 69.1 °F 69% 30.00 in 10.0 mi SE 11.5 mph - N/A   Clear
10:53 PM 78.1 °F - 69.1 °F 74% 30.00 in 10.0 mi SE 12.7 mph - N/A   Clear
11:53 PM 77.0 °F - 69.1 °F 76% 29.99 in 10.0 mi SE 11.5 mph - N/A   Clear